STARLINK-2763 (48670 NORAD) Tracking and Keplerian Element Data

This shows tracking and keplerian element data for the satellite.

Feedback or suggestion? Click here.




ElementValue
Catalog48670
NameSTARLINK-2763
Epoch Orbit1150
Epoch Day214.91667824
Epoch Year2021
RAAN92.5691
Inclination53.0475
Eccentricity0.0001611
Argument of Perigee51.13
Mean Anonmoly239.5859
Mean Motion15.11930802
Decay Rate-0.00921087
L11 48670U 21044AJ 21214.91667824 -.00921087 00000-0 -57430-1 0 9998
L22 48670 53.0475 92.5691 0001611 51.1300 239.5859 15.11930802 11500

Live tracking and technical data element details for STARLINK-2763 (NORAD 48670). STARLINK-2763 can be tracked NOW for your location showing map with azimuth and elevation plus other details from your city location.

Track the satellite on the map from your city or location and see movement details for azimuth, elevation, latitude, longitude, range, height, and movement on the map or in text.







IsCatalogInMostPopularTable: catalog: 48670, numindb: 17
Update: records affected: 1



GetName: 48670 STARLINK-2763

Hit Count: updated at: Wed, 04 Aug 2021 00:45:15 GMT